Lid_Strength_Index
8 11 13 12 11 11 10 11 11 9 8 10 11 10 9 7 7 7 7 7 6 5 4 3 2 2 2 2 1 1 1 1 1 1 2 2 2 1 2 1 0 0 0 -0
9 11 9 8 8 9 10 11 11 9 7 8 10 11 9 8 8 7 7 7 6 5 5 4 3 2 2 2 2 1 1 1 1 1 1 1 1 1 1 2 0 -0 0 0
10 9 6 8 8 9 10 11 11 11 9 9 10 13 11 8 7 7 6 6 5 5 5 4 4 3 2 2 2 2 1 1 1 1 1 1 1 1 2 2 2 0 -0 -0
10 7 8 8 9 8 11 9 10 10 11 14 10 19 13 10 10 8 7 6 6 5 4 4 4 3 3 2 1 1 1 1 1 1 1 2 2 3 2 2 1 0 0 0
11 9 9 9 9 7 10 7 10 10 12 13 11 15 14 10 11 9 8 7 6 5 4 4 4 3 2 2 2 1 1 1 1 1 1 1 2 2 3 2 2 1 0 0
10 8 7 8 7 7 7 9 11 12 14 16 13 12 14 13 11 9 7 6 6 5 4 4 3 3 3 2 2 2 2 2 1 1 1 1 2 2 3 3 3 2 1 1
11 10 8 7 9 8 8 12 15 17 17 17 13 14 12 10 8 8 7 6 5 5 5 4 4 3 3 3 2 2 2 2 1 1 1 1 1 2 2 3 2 2 1 1
14 14 10 8 8 10 10 10 14 18 18 15 14 15 12 8 7 6 6 6 5 5 4 4 4 3 3 3 2 2 2 2 2 1 1 1 2 1 2 2 2 2 1 1
16 14 8 8 7 7 11 12 10 15 16 17 15 13 11 9 8 7 6 6 6 5 5 4 3 3 3 3 3 2 2 2 2 2 1 1 1 1 1 2 2 1 1 1
13 17 11 10 8 7 8 10 14 16 17 18 16 15 13 11 11 10 7 7 6 5 5 4 3 3 3 2 2 2 2 2 2 1 1 1 1 1 1 1 2 1 1 1
12 15 13 11 12 12 10 11 13 13 15 16 18 14 11 11 11 10 7 6 6 5 5 4 4 3 3 2 2 2 2 2 2 2 1 1 1 1 1 2 2 1 1 1
10 13 16 14 11 10 9 11 12 13 16 16 15 13 9 8 8 8 9 6 5 5 4 4 3 3 3 3 2 2 2 2 2 1 2 1 1 1 1 1 1 2 2 1
11 13 17 15 14 12 13 12 13 14 14 15 14 13 9 9 8 8 7 7 5 5 4 4 4 4 3 3 3 2 2 2 2 2 2 2 2 1 1 1 1 1 2 2
9 13 15 18 17 14 14 13 11 13 14 14 13 12 12 10 9 7 8 7 5 5 5 4 4 4 3 3 3 3 2 2 2 2 2 2 2 2 1 1 1 1 1 2
11 16 15 15 15 14 13 13 10 12 12 13 12 13 11 10 9 7 7 7 5 5 5 5 4 4 3 3 3 3 2 2 2 2 2 2 2 1 1 1 1 1 1 1
12 16 16 17 14 13 12 10 10 10 11 11 11 12 9 9 8 8 7 6 6 6 5 4 4 4 3 3 3 3 2 2 2 2 2 2 2 2 2 1 1 1 1 1
14 16 17 18 13 12 14 12 11 10 10 11 11 10 8 8 8 8 7 6 6 7 5 5 4 4 3 3 3 3 2 2 2 2 2 2 2 2 2 2 2 2 2 1
13 15 17 18 14 18 12 10 10 11 10 9 10 9 8 8 7 7 6 6 6 5 6 6 6 6 3 2 3 2 2 2 2 2 2 2 2 2 2 2 2 2 2 2
11 14 18 19 16 13 12 11 12 12 12 9 9 8 8 7 7 8 6 5 6 5 5 4 5 5 5 4 3 2 2 2 2 3 2 2 2 2 2 2 2 2 2 2
12 13 16 17 17 19 14 11 9 8 15 9 10 9 8 7 12 10 6 5 5 6 4 4 4 3 3 4 4 3 3 3 3 3 2 2 2 2 2 2 2 2 2 2
14 15 17 16 16 14 12 11 10 15 13 9 10 10 9 10 9 9 8 8 6 5 6 4 3 4 3 4 4 5 4 4 3 2 2 2 2 2 2 2 2 2 2 2
14 15 16 16 17 19 11 12 14 13 12 11 11 10 9 9 9 9 9 8 8 7 5 6 5 4 3 3 3 5 4 3 3 2 2 2 2 2 2 2 2 2 2 2
15 13 15 16 15 13 12 12 10 10 12 12 11 11 10 9 10 10 10 9 8 8 4 4 5 6 3 3 3 4 3 5 3 3 3 3 2 2 2 2 2 2 2 3
11 10 13 15 13 13 13 12 10 11 12 11 11 11 10 10 9 10 10 9 8 8 7 4 4 4 4 4 3 3 2 3 3 3 3 3 3 3 3 2 2 2 3 3
11 10 13 15 14 13 12 12 12 12 11 11 11 11 11 10 10 10 10 9 9 8 8 5 4 4 4 3 3 2 2 2 3 3 4 3 3 4 3 5 6 2 2 4
10 12 14 16 13 12 12 11 11 12 12 11 11 11 11 10 10 10 10 9 9 8 8 7 4 4 3 3 3 2 2 2 3 3 3 3 3 3 5 8 11 17 18 18